Location: Kimberly
(42.5380°N, 114.3640°W)
Time: 11:30:55
(UTC-06:00)

X-37B - Pass Details

Date: 06 August 2021
Orbit: 381 x 393 km, 45.0° (Epoch: 29 August)

Event Time Altitude Azimuth Distance (km) Brightness Sun altitude
Exits shadow 03:38:14 15° 80° (E) 1,121 3.3 -25.2°
Drops below altitude 10° 03:38:55 10° 77° (ENE) 1,394 3.9 -25.2°
Sets 03:41:00 0° 73° (ENE) 2,248 5.2 -25.0°
